EST,Max TemperatureF,Mean TemperatureF,Min TemperatureF,Max Dew PointF,MeanDew PointF,Min DewpointF,Max Humidity, Mean Humidity, Min Humidity, Max Sea Level PressureIn, Mean Sea Level PressureIn, Min Sea Level PressureIn, Max VisibilityMiles, Mean VisibilityMiles, Min VisibilityMiles, Max Wind SpeedMPH, Mean Wind SpeedMPH, Max Gust SpeedMPH,PrecipitationIn, CloudCover, Events, WindDirDegrees
2013-12-1,74,63,51,59,54,50,100,75,49,30.24,30.15,30.01,10,6,0,10,4,17,0.00,4,Fog,6
2013-12-2,73,62,51,58,55,47,100,71,41,30.00,29.93,29.84,10,4,0,13,3,25,0.00,3,Fog,332
2013-12-3,76,60,44,58,50,44,100,77,53,29.99,29.94,29.90,10,6,0,14,3,19,0.00,3,Fog,189
2013-12-4,80,67,54,65,60,53,100,77,54,30.11,30.05,29.97,10,6,0,10,1,14,0.00,3,Fog,227
2013-12-5,83,69,54,66,60,54,100,74,47,30.18,30.11,30.09,10,6,0,13,2,17,0.00,0,Fog,169
2013-12-6,84,71,58,68,63,58,100,78,55,30.18,30.15,30.11,10,5,0,15,5,20,0.00,3,Fog,179
2013-12-7,83,72,60,69,64,60,100,78,55,30.24,30.19,30.15,10,5,0,14,4,16,0.00,5,Fog,197
2013-12-8,82,70,57,68,62,57,100,78,55,30.26,30.20,30.12,10,5,0,13,4,17,0.00,5,Fog,115
2013-12-9,83,72,61,68,64,61,100,78,55,30.18,30.16,30.09,10,5,0,15,5,20,0.00,6,Fog,209
2013-12-10,81,67,53,71,65,47,100,81,62,30.25,30.12,30.07,10,7,1,17,8,24,0.29,6,Rain,240
2013-12-11,71,60,49,59,51,40,86,76,66,30.31,30.26,30.22,10,10,10,12,8,15,0.00,6,,23
2013-12-12,67,51,35,51,36,23,86,53,19,30.39,30.32,30.26,10,10,10,17,7,22,0.00,2,,15
2013-12-13,70,52,34,53,45,33,96,74,51,30.35,30.25,30.16,10,10,10,17,5,22,0.00,0,,33
2013-12-14,77,65,52,68,63,51,100,87,74,30.13,29.99,29.92,10,7,2,18,6,24,1.39,7,Rain-Thunderstorm,172
2013-12-15,68,57,46,66,57,41,100,84,68,30.19,29.99,29.87,10,8,2,26,7,34,0.77,7,Rain,291
2013-12-16,61,49,36,43,38,35,100,70,40,30.27,30.23,30.18,10,10,7,13,4,15,0.00,0,,344
2013-12-17,68,51,34,43,37,33,93,61,29,30.30,30.25,30.19,10,10,10,12,3,14,0.00,0,,327
2013-12-18,66,51,35,40,35,26,92,58,24,30.34,30.28,30.23,10,10,10,15,5,20,0.00,0,,327
2013-12-19,72,52,32,53,44,32,100,72,44,30.33,30.27,30.22,10,10,10,12,2,15,0.00,0,,102
2013-12-20,78,61,44,62,52,44,100,74,48,30.24,30.19,30.14,10,8,0,12,3,18,0.00,3,Fog,116
2013-12-21,84,70,56,68,62,56,100,76,51,30.15,30.10,30.04,10,9,2,21,6,27,0.00,2,,146
2013-12-22,83,74,64,70,66,64,100,79,58,30.14,30.11,30.07,10,8,2,16,7,22,0.00,6,,170
2013-12-23,83,73,63,70,67,61,100,79,58,30.17,30.12,30.07,10,9,3,18,8,25,T,6,,203
2013-12-24,63,52,40,58,41,29,93,61,29,30.33,30.26,30.14,10,10,10,18,10,23,0.00,3,,347
2013-12-25,69,53,36,54,43,28,96,75,53,30.32,30.27,30.22,10,9,7,20,9,24,0.00,4,,25
2013-12-26,66,58,49,52,48,47,100,82,63,30.29,30.23,30.18,10,9,7,12,6,15,0.00,5,,15
2013-12-27,62,56,50,56,51,46,96,87,78,30.33,30.28,30.23,10,8,4,13,8,17,0.01,8,Rain,26
2013-12-28,72,63,53,68,59,48,100,89,77,30.29,30.16,30.00,10,9,2,14,8,19,0.01,7,Rain,76
2013-12-29,71,64,57,70,65,55,100,94,87,30.02,29.96,29.91,10,6,0,16,6,22,1.32,6,Fog-Rain-Thunderstorm,232
2013-12-30,67,57,47,54,48,44,100,73,45,30.22,30.13,30.02,10,10,6,14,6,18,0.00,3,,338
2013-12-31,65,56,47,49,48,45,93,73,52,30.35,30.29,30.22,10,10,9,10,4,16,0.00,5,,6